Regional Weather Roundup
Issued by NWS

Home | Current Version | Previous Version | Text Only | Print | Product List | Glossary On
Versions: 1 2 3 4 5 6 7 8 9 10 11 12 13 14 15 16 17 18 19 20 21 22 23 24 25 26 27 28 29 30 31 32 33 34 35 36 37 38 39 40 41 42 43 44 45 46 47 48 49 50
000
ASUS46 KLOX 030413
RWRCA

SOUTHERN CALIFORNIA WEATHER ROUNDUP
NATIONAL WEATHER SERVICE OXNARD CALIFORNIA
900 PM PDT WED SEP 02 2015

NOTE: "FAIR" INDICATES FEW OR NO CLOUDS BELOW 12,000 FEET WITH NO
SIGNIFICANT WEATHER AND/OR OBSTRUCTIONS TO VISIBILITY.

  -  STATIONS PRECEEDED BY AN ASTERISK (*) ARE NOT NWS OR FAA
     STATIONS AND ARE NOT SUBJECT TO NWS AND FAA QUALITY CONTROL.

CAZ041-042-087-030500-
LA AND ORANGE COUNTY COASTAL AREAS


CITY           SKY/WX    TMP DP  RH WIND       PRES   REMARKS
L.A. DOWNTOWN  CLEAR     69  60  73 W3        29.91R
L.A. AIRPORT   PTCLDY    68  61  78 W9        29.92R
LONG BEACH     NOT AVBL

CITY           SKY/WX    TMP DP  RH WIND       PRES   REMARKS
AVALON           N/A     64 N/A N/A MISG        N/A
FULLERTON      CLEAR     70  60  70 S7        29.91R
*GETTY CENTER    N/A     61  59  94 SW6         N/A
HAWTHORNE      CLEAR     70  60  70 W8        29.92R
*LOS ALAMITOS  PTCLDY    68  61  79 S6        29.92R
*REDONDO BEACH   N/A     67  60  77 CALM      29.92R
SANTA ANA      MOCLDY    69  60  73 W5        29.92R
STA MONICA APT PTCLDY    69  62  78 SW7       29.92R
*UCLA            N/A     66  59  77 S6        29.89R

$$

CAZ547-548-048-030500-
LA COUNTY VALLEYS AND INLAND EMPIRE


CITY           SKY/WX    TMP DP  RH WIND       PRES   REMARKS
BURBANK        CLEAR     69  58  67 S5        29.91R
VAN NUYS       CLEAR     69  58  67 SE7       29.91R

CITY           SKY/WX    TMP DP  RH WIND       PRES   REMARKS
CORONA AIRPORT PTCLDY    68  60  75 W8G17     29.91R
*CHATSWORTH      N/A     71  55  56 CALM      29.90R
CHINO          CLEAR     70  59  68 SW13      29.92R
*CLAREMONT       N/A     66  58  75 SW3G15      N/A
MARCH AFB      MOCLDY    71  59  65 NW6       29.93R
*NORTHRIDGE      N/A     70  54  56 E2          N/A
ONTARIO        PTCLDY    70  58  65 W10       29.92R
*PASADENA        N/A     68  61  77 CALM        N/A
POMONA         CLEAR     68  57  68 W12       29.95R
RIVERSIDE      PTCLDY    71  59  65 VRB6      29.92R
SAN BERNARDINO NOT AVBL
*SAN GABRIEL     N/A     70  61  73 SW6       29.98R
*WHITEMAN AP   NOT AVBL
*WOODLAND HILL   N/A     68  52  56 E1          N/A

$$

CAZ054-055-030500-
LA AND SAN BERNARDINO COUNTY MOUNTAINS


CITY           SKY/WX    TMP DP  RH WIND       PRES   REMARKS
*ACTON           N/A     70  46  42 N5G17       N/A
*BIG BEAR AIRP MOCLDY    59  36  41 CALM      30.17R
*BIG PINES       N/A     57  37  46 S2          N/A
*CHILAO          N/A     61  35  37 S12         N/A
SANDBERG       CLEAR     62  51  67 S8        30.05R
*WARM SPRINGS    N/A     61  52  71 SW6         N/A

$$

CAZ028-029-059-060-099-030500-
ANTELOPE VALLEY AND SURROUNDING AREAS


CITY           SKY/WX    TMP DP  RH WIND       PRES   REMARKS
LANCASTER      CLEAR     72  40  31 W25       29.91S
PALMDALE       CLEAR     72  30  21 W25       29.91R
*POPPY PARK      N/A     67  47  48 SW7         N/A

CITY           SKY/WX    TMP DP  RH WIND       PRES   REMARKS
29 PALMS       PTCLDY    85  39  19 S7        29.92R
BARSTOW/DAGGET PTCLDY    84  32  15 W18       29.85R
BISHOP         MOCLDY    79  18  10 SE23G31   29.88R
CHINA LAKE     CLEAR     81  35  19 S16       29.84R
EDWARDS AFB    PTCLDY    77  18  11 SW20G25   29.88R
MOJAVE         CLEAR     75  36  23 SW13      29.92R
NEEDLES        PTCLDY    95  39  14 SW9       29.78R HX  91
VICTORVILLE    PTCLDY    73  46  38 S14       29.94R

$$

CAZ039-040-030500-
VENTURA AND SANTA BARBARA COUNTY COAST


CITY           SKY/WX    TMP DP  RH WIND       PRES   REMARKS
CAMARILLO      CLEAR     70  59  68 W5        29.91R
NWS OXNARD       N/A     69  60  74 CALM      29.90R
OXNARD AIRPORT CLEAR     68  59  73 W7        29.90R
*POINT MUGU    PTCLDY    69  60  73 W5        29.91R
SBA APT/GOLETA CLEAR     69  60  73 CALM      29.89R
*SANTA BARBARA   N/A     70  56  61 CALM      29.97R
*VENTURA         N/A     69  59  70 CALM      29.50S

$$

CAZ044-045-030500-
VENTURA COUNTY VALLEYS


CITY           SKY/WX    TMP DP  RH WIND       PRES   REMARKS
*SIMI VALLEY     N/A     66  59  80 CALM      29.87R
*OJAI            N/A     64  58  83 CALM      29.85R
*FILLMORE        N/A     67  57  70 CALM      29.82R

$$

CAZ053-030500-
VENTURA COUNTY MOUNTAINS


CITY           SKY/WX    TMP DP  RH WIND       PRES   REMARKS
*LOCKWOOD VLY    N/A     52  27  37 CALM        N/A
*ROSE VALLEY     N/A     57  52  82 MISG        N/A

$$

CAZ034-035-036-030500-
CENTRAL COAST AND SANTA YNEZ VALLEY


CITY           SKY/WX    TMP DP  RH WIND       PRES   REMARKS
SAN LUIS OBISP CLEAR     64  56  75 NW10      29.92R
SANTA MARIA    CLEAR     62  56  80 NW3       29.93R

CITY           SKY/WX    TMP DP  RH WIND       PRES   REMARKS
*CAL POLY SLO    N/A     63  57  82 W3G9        N/A
*LOMPOC        CLEAR     61  54  77 W5        29.94R
*PISMO BEACH     N/A     63  59  87 NE5       29.92R
*SANTA YNEZ    FAIR      63  55  77 W7        29.93R

$$

CAZ037-038-051-030500-
SAN LUIS OBISPO COUNTY INTERIOR AND CUYAMA VALLEY


CITY           SKY/WX    TMP DP  RH WIND       PRES   REMARKS
*CUYAMA          N/A     65  53  65 W7        29.83R
PASO ROBLES    CLEAR     67  54  63 W9        29.91R

$$

CAZ032-033-061-030500-
SOUTHERN DESERTS


CITY           SKY/WX    TMP DP  RH WIND       PRES   REMARKS
BLYTHE         PTCLDY    93  50  23 S10       29.76R HX  90
IMPERIAL       PTCLDY    91  48  22 W5        29.73R
PALM SPRINGS   MOCLDY    91  44  19 NW17G24   29.78R
THERMAL        MOCLDY    92  39  15 N8        29.72R

$$

ELSEWHERE ACROSS THE WESTERN UNITED STATES AND MEXICO


CITY           SKY/WX    TMP DP  RH WIND       PRES   REMARKS
DEATH VALLEY,    N/A    102  27   7 E5          N/A  HX  95
DENVER, CO     MOCLDY    74  40  29 S8        30.05R
GRAND CANYON,  PTCLDY    57  44  62 CALM      30.24R
HONOLULU, HI   PTSUNNY   82  75  78 S6        29.82R
KAHULUI, MAUI  PTCLDY    84  73  70 VRB5      29.85  HX  91
LAKE TAHOE, CA CLEAR     60  37  42 S8        30.08R
LAS VEGAS, NV  PTCLDY    91  35  13 S10G18    29.79R
MAMMOTH LAKES, FAIR      59  36  41 W8        30.11R
MEXICO CITY, M LGT RAIN  59  55  88 S3        30.37R
PHOENIX, AZ    MOCLDY    94  53  25 W6        29.83R HX  91
PORTLAND, OR   PTCLDY    62  49  62 NW12      29.96R
RENO, NV       PTCLDY    71  35  26 W16G25    29.93R
SALT LAKE CITY MOCLDY    82  41  23 S15       29.86R
SAN DIEGO, CA  PTCLDY    70  58  65 W7        29.95R
SAN FRANCISCO, PTCLDY    63  56  78 W13       29.91S
SAN JOSE, CA   PTCLDY    65  57  75 NW7       29.93R
SEATTLE, WA    PTCLDY    56  49  77 CALM      29.96R
TIJUANA, MEX   MOCLDY    66  55  68 NW8       29.96R

$$

STATION/POSITION TIME  TEMP    WIND        PRES    VSBY  WAVE
                       AIR SEA DIR/SP/G                  HT/PER
                 (UTC) (F)     (DEG/KT/KT) (MB)    (MI)  (FT/S)
POINT ARGUELLO B NOT AVBL
WEST SANTA BARBA 0350   65 68  320/ 16/ 17 1011.8R         7/11
POINT CONCEPTION NOT AVBL
EAST SANTA BARBA 0300   68 71  280/ 10/ 12 1012.1F
SANTA MONICA BAY 0350   67 70  220/  4/  6 1012.9R         3/11


USA.gov is the U.S. government's official web portal to all federal, state and local government web resources and services.